This is the latest recevied weather packets stored in our database for station/object IZ5TJI-3. If no packets are shown the sender has not sent any weather packets the latest 10 day(s).
| Time | Temp. | Humidity | Pressure | Rain* | Wind** | Luminosity | Snow |
|---|---|---|---|---|---|---|---|
| 1777908618 | 21.11° C | 47% | 1015.4 hPa | 0 mm | - | - | - |
| 1777907718 | 21.67° C | 47% | 1015.5 hPa | 0 mm | - | - | - |
| 1777906818 | 21.67° C | 46% | 1015.5 hPa | 0 mm | - | - | - |
| 1777905918 | 21.67° C | 46% | 1015.5 hPa | 0 mm | - | - | - |
| 1777905018 | 22.22° C | 46% | 1015.6 hPa | 0 mm | - | - | - |
| 1777904118 | 22.22° C | 45% | 1015.8 hPa | 0 mm | - | - | - |
| 1777903218 | 21.67° C | 44% | 1015.7 hPa | 0 mm | - | - | - |
| 1777902318 | 22.22° C | 44% | 1015.9 hPa | 0 mm | - | - | - |
| 1777901418 | 22.22° C | 43% | 1016 hPa | 0 mm | - | - | - |
| 1777900518 | 22.78° C | 41% | 1016.2 hPa | 0 mm | - | - | - |
| 1777899655 | 22.78° C | 40% | 1016.3 hPa | 0 mm | - | - | - |
| 1777899618 | 22.78° C | 40% | 1016.3 hPa | 0 mm | - | - | - |
| 1777898718 | 22.78° C | 41% | 1016.4 hPa | 0 mm | - | - | - |
| 1777897818 | 22.22° C | 41% | 1016.5 hPa | 0 mm | - | - | - |
| 1777896918 | 22.78° C | 40% | 1016.5 hPa | 0 mm | - | - | - |
| 1777896018 | 22.22° C | 41% | 1016.7 hPa | 0 mm | - | - | - |
| 1777895118 | 22.78° C | 41% | 1016.8 hPa | 0 mm | - | - | - |
| 1777894218 | 21.67° C | 41% | 1016.9 hPa | 0 mm | - | - | - |
| 1777893318 | 22.22° C | 42% | 1017 hPa | 0 mm | - | - | - |
| 1777892418 | 21.67° C | 43% | 1017.3 hPa | 0 mm | - | - | - |
| 1777891518 | 21.11° C | 43% | 1017.2 hPa | 0 mm | - | - | - |
| 1777890618 | 20.56° C | 45% | 1017.5 hPa | 0 mm | - | - | - |
| 1777889718 | 20.56° C | 46% | 1017.8 hPa | 0 mm | - | - | - |
| 1777888818 | 20.56° C | 48% | 1017.8 hPa | 0 mm | - | - | - |
| 1777887918 | 20° C | 50% | 1017.9 hPa | 0 mm | - | - | - |
* Rain latest hour (hover to see other rain measurements)
** Current wind speed in m/s (hover to see current wind gust speed)